SL-12 R/B(AUX MOTOR), 15338

Orbit data source: Space-Track

SL-12 R/B(AUX MOTOR), 15338 is space debris in LEO originally from a launch on Fri, 28 Sep 1984 UTC launched from the Tyuratam Missile And Space Complex (TTMTR). Debris objects in space refer to the collection of defunct objects orbiting the Earth. Examples of debris include non-operational satellites, rocket bodies, and fragments generated from explosions, collisions, or faulty payload assembly.

Loading next visibility...
Identifier
15338, 1984-106F
Orbit
LEO
Country
Flag of CISCIS
Related business
Manufacturer
NPO Energiya
Mission
Spacecraft
Bus & Motor
SOZ, Unknown motor
Mass
110 kg wet, 56 kg dry
Launch date (UTC)
1984-09-28 (42 years ago)
Launch vehicle
Unknown
Launch site
Tyuratam Missile And Space Complex (TTMTR)
Object type
Payload
Rocket body
Debris
Shape & HBR
Unknown
Radar Cross Section
Medium (>0.1 m² and <1 m²)

Expand to show TLE details & history
Last TLE update: 1 day ago

TLE from 1 day ago
0 SL-12 R/B(AUX MOTOR)
1 15338U 84106F   26094.37963802  .00000244  00000-0  15618-3 0  9992
2 15338  66.5692  97.9904 0014324 334.5867  25.4518 14.19284178147758
Epoch: 2026-04-04T09:06Z
TLE epoch observation values (Epoch: 2026-04-04T09:06:40.724Z)
Latitude
-0.00009°
Longitude
128.62042°
Altitude
820.543 km
Speed
7.448 km/s
True Right ascension
06h 31m 57s
True Declination
0° 00' 00"
Sunlit
Object was in daylight at epoch
Visualization orbit readout
Latitude
Unknown
Longitude
Unknown
Altitude
Unknown
Speed
Unknown
Apparent Right ascension
Unknown
Apparent Declination
Unknown
Sunlit
N/A
Visualization observer readout
Local Sidereal Time
16:05:17
Azimuth
Unknown
Elevation
Unknown
Doppler factor
Unknown
Orbital elements
Apogee altitude
836.492 km
Perigee altitude
815.854 km
Semi-major axis
7,204.31 km
Eccentricity
0.00143
Inclination
66.5692°
RAAN
97.9904°
Arg. of periapsis
334.5867°
True anomaly
25.52245°
Mean anomaly
25.4518°
Eccentric anomaly
25.48712°
Mean motion
3.5494 °/min
Orbital period
101.43 mins
BSTAR
0.00015618
Loading maneuver chart data...
Computing Atmospheric mass density...
Loading historical data...
Loading historical data...
Loading historical data...
Loading historical data...
Loading historical data...
Loading historical data...
Loading historical data...

Documentation

Showing up to 5 results
|